Location: Albuquerque Trailhead
(34.7934°N, 106.3736°W)
Time: 05:30:43
(UTC+00:00)

Cosmos 2082 Rocket - Pass Details

Date: 20 June 2021
Orbit: 832 x 854 km, 71.0° (Epoch: 29 July)

Event Time Altitude Azimuth Distance (km) Brightness Sun altitude
Exits shadow 09:49:05 - 153° (SSE) 2,876 4.7 -20.2°
Reaches altitude 10° 09:50:41 10° 142° (SE) 2,432 4.5 -20.0°
Maximum altitude 09:54:25 19° 100° (E) 1,903 4.4 -19.5°
Drops below altitude 10° 09:58:09 10° 57° (ENE) 2,442 5.7 -19.0°
Sets 10:01:17 0° 40° (NE) 3,382 7.1 -18.6°
